Dewpoint
46 47 51 55 59 61 62 62 62 63 63 64 65 65 65 65 65 65 65 65 64 64 63 63 64 64 64 64 64 64 64 64 64 64 63 63 63 62 62 61 61 61
45 48 51 54 57 61 62 62 62 62 62 63 64 65 65 65 65 65 65 65 64 64 63 63 63 63 63 63 64 64 64 64 64 64 64 63 63 63 62 62 62 61
45 46 47 48 51 54 58 61 63 63 63 63 64 64 65 65 65 65 65 65 65 65 64 63 63 63 63 63 63 63 63 64 64 64 64 63 63 63 63 63 62 62
44 45 46 46 49 52 54 58 61 62 64 64 64 64 65 65 65 65 65 65 65 65 65 64 63 64 64 64 64 65 64 64 64 64 64 64 64 63 63 63 62 62
44 45 46 47 49 50 51 53 56 60 62 63 64 64 64 65 65 65 65 65 65 65 65 64 64 64 64 64 64 64 64 64 65 65 64 64 64 64 63 63 62 62
44 45 46 46 47 47 49 50 52 55 59 62 63 64 64 64 65 65 65 65 65 65 65 65 64 64 64 64 64 64 64 64 64 64 64 63 64 64 63 63 63 62
43 44 44 44 45 47 49 50 51 54 58 61 62 63 64 64 64 64 65 65 65 65 65 64 64 64 64 64 63 64 64 64 64 63 63 63 63 63 63 63 63 62
43 43 44 44 45 47 48 49 50 53 56 60 62 62 63 63 64 64 64 65 65 64 65 65 65 64 64 64 63 63 63 63 63 63 63 63 63 62 62 63 63 62
43 43 44 45 46 46 46 48 49 52 56 60 62 62 63 63 63 64 64 65 65 65 65 65 65 64 64 64 64 63 63 63 63 63 62 62 62 62 62 62 62 62
42 43 44 44 44 45 46 48 49 52 56 59 61 62 63 63 63 63 64 64 64 64 64 64 65 65 65 64 64 63 63 63 63 63 62 62 62 62 62 62 62 62
42 42 43 43 44 45 46 47 48 50 53 56 60 62 62 62 63 63 64 64 64 64 64 64 65 65 64 64 64 64 63 63 63 63 62 62 62 62 62 62 62 62
42 42 43 43 44 46 47 48 49 50 52 56 59 61 61 62 62 63 64 64 64 64 64 64 64 64 64 64 64 64 64 63 63 63 63 62 62 62 62 62 62 62
42 43 43 43 44 46 47 48 49 50 52 56 60 61 61 61 62 63 63 64 64 64 64 64 64 64 64 64 64 64 64 63 63 63 63 62 62 62 61 61 61 62
43 43 43 44 45 47 49 50 51 53 55 58 60 60 60 61 61 61 62 63 63 64 64 64 64 64 64 64 64 64 64 63 63 63 63 63 62 62 62 61 61 62
43 44 45 46 47 47 48 49 50 51 54 58 60 60 61 61 61 61 61 61 62 63 63 64 64 64 64 64 64 63 64 63 63 63 63 63 63 63 62 62 62 62
42 42 43 43 44 45 45 47 48 49 51 54 57 58 59 60 61 62 61 61 61 62 62 63 64 64 62 58 58 63 64 63 63 63 63 63 63 63 63 63 63 62
41 41 42 42 42 43 44 46 46 48 50 51 53 56 58 59 60 61 62 62 62 62 62 62 63 63 57 53 52 54 62 64 64 63 63 63 63 63 63 63 63 63
40 40 40 41 42 42 43 44 45 46 47 47 48 50 51 55 58 59 60 61 62 62 62 62 63 59 53 52 51 51 54 63 64 64 63 63 63 63 63 63 63 63
39 39 40 40 41 41 42 43 43 44 44 45 46 48 50 51 53 58 59 60 60 61 61 62 63 56 51 50 51 51 50 56 63 64 63 63 63 63 63 63 63 63
39 39 40 40 41 41 41 41 42 42 43 43 45 46 48 50 51 52 56 60 61 61 61 62 62 57 50 49 50 50 50 52 63 64 64 64 63 63 63 63 63 63
40 40 40 40 40 40 40 40 40 40 40 41 44 46 47 47 48 49 51 54 58 59 60 61 62 53 48 47 46 47 48 50 62 63 63 63 64 64 63 63 63 63
41 40 39 39 39 39 39 39 39 39 39 40 43 45 45 46 46 47 48 49 52 57 59 59 60 51 48 47 47 47 46 53 61 62 62 63 63 63 63 64 64 64
42 41 39 38 38 38 38 38 38 38 39 41 42 42 43 44 44 45 47 48 50 54 58 59 60 54 48 48 46 46 47 55 58 61 62 62 62 63 63 63 63 63
41 39 38 38 38 38 38 38 38 38 39 41 41 41 41 42 43 45 46 48 49 51 55 57 58 56 49 47 46 46 50 56 58 59 60 61 62 62 63 63 63 61
39 39 38 38 38 38 38 38 38 39 40 40 40 40 41 42 43 44 45 47 48 50 52 56 58 56 50 46 46 46 49 57 59 59 60 60 60 60 61 62 62 61
38 38 39 39 39 39 39 39 40 40 40 40 40 41 41 42 43 44 44 46 47 49 51 54 57 59 56 48 46 45 46 55 58 59 59 59 60 60 60 61 61 62